Temperature
23 20 20 21 21 22 22 23 22 23 24 24 23 22 22 21 21 21 20 20 20 20 20 20 20 20 20 19 19 19 19 18 18 18 17 17 17 16 16 16 16 16 16 16
21 20 22 23 23 23 23 22 22 23 24 24 22 22 21 21 21 21 20 20 19 19 19 19 19 19 19 19 19 18 18 18 18 18 17 17 17 16 16 16 16 16 15 15
21 22 24 24 23 23 23 22 23 23 24 23 22 21 21 21 21 20 20 20 19 19 19 19 19 19 19 18 18 18 18 18 17 17 17 17 16 16 16 16 16 15 15 15
22 23 24 24 24 24 23 24 24 24 22 21 22 20 20 20 20 20 19 19 19 19 19 19 19 18 18 18 18 18 18 17 17 17 17 16 16 16 16 15 15 15 15 15
22 24 24 24 25 25 23 25 24 24 22 21 21 20 19 19 19 19 19 19 19 19 19 19 18 18 18 18 18 18 17 17 17 16 16 16 16 16 15 15 15 15 15 15
23 24 24 25 26 26 25 24 22 21 20 20 21 20 19 18 19 19 19 19 19 19 19 19 18 18 18 18 17 17 17 17 16 16 16 16 16 15 15 15 15 15 15 14
23 24 25 25 25 25 24 21 20 20 19 19 20 20 19 19 20 19 19 19 19 19 18 18 18 18 18 17 17 17 17 16 16 16 16 15 15 15 15 15 15 15 14 14
21 22 24 25 25 23 23 21 20 20 19 19 20 19 19 20 20 20 20 20 19 19 18 18 18 18 17 17 17 17 16 16 16 16 15 15 15 15 15 14 14 14 14 14
21 22 25 25 25 24 23 21 20 19 19 19 18 19 19 20 19 19 19 19 18 18 18 18 18 17 17 17 17 16 16 16 16 15 15 15 15 14 14 14 14 14 14 14
21 22 23 25 25 24 23 22 19 19 19 19 19 19 18 19 19 18 18 18 18 18 18 17 17 17 17 17 16 16 16 16 15 15 15 15 15 14 14 14 14 14 14 14
21 20 22 23 23 23 23 22 19 18 18 18 18 19 20 19 18 18 18 18 18 18 17 17 17 17 17 16 16 16 15 15 15 15 15 14 14 14 14 14 14 14 13 13
20 18 19 21 23 24 23 21 19 19 19 18 18 18 20 18 18 18 18 18 18 18 17 17 16 16 16 16 15 15 15 15 15 15 14 14 14 14 14 14 13 13 13 13
20 18 19 20 21 22 22 22 20 18 17 17 17 18 19 18 18 18 18 18 17 17 16 16 16 16 16 15 15 15 15 14 14 14 14 14 14 14 14 13 13 13 13 13
20 17 18 19 20 21 22 22 21 19 17 18 18 18 18 18 17 17 18 18 17 17 16 16 16 16 15 15 15 15 14 14 14 14 14 14 14 13 13 13 13 13 13 13
18 18 19 20 21 21 22 22 21 20 19 19 19 18 18 17 17 17 17 17 16 16 16 16 15 15 15 15 15 14 14 14 14 14 13 13 13 13 13 13 13 13 12 12
16 17 18 19 21 21 21 21 21 21 20 20 19 18 18 17 18 17 17 16 16 16 15 15 15 15 15 15 14 14 14 14 13 13 13 13 13 13 13 13 13 13 12 12
16 16 17 18 20 20 19 20 20 20 20 20 18 17 17 17 17 16 17 16 16 15 15 15 15 15 15 15 14 14 14 13 13 13 13 13 13 13 13 13 12 12 12 12
16 16 15 16 18 18 19 20 21 20 19 18 18 17 17 16 17 17 17 16 16 16 16 16 15 15 15 14 14 14 13 13 13 13 13 13 13 12 12 12 12 12 12 12
16 16 15 15 17 18 19 20 20 19 18 18 17 17 16 16 16 16 17 17 17 17 16 16 15 15 15 14 14 14 13 13 13 13 13 13 12 12 12 12 12 12 12 12
16 15 15 16 17 17 18 19 19 19 17 17 17 16 16 16 15 15 16 16 17 17 16 16 15 15 15 14 14 14 13 13 13 13 13 13 12 12 12 12 12 12 12 11
15 15 15 15 16 16 17 18 19 18 16 17 17 16 16 15 15 16 16 16 16 16 16 15 15 15 14 14 14 13 13 13 13 13 12 12 12 12 12 12 12 12 11 11
14 14 14 14 15 15 16 17 16 15 16 16 16 16 16 16 16 16 16 16 16 16 15 15 15 14 14 14 14 13 13 13 13 13 12 12 12 12 12 12 12 11 11 11
14 14 13 14 14 15 16 16 16 16 16 16 16 16 16 15 15 16 16 16 15 15 15 15 14 14 14 14 13 13 13 13 13 12 12 12 12 12 12 12 12 11 11 11
14 14 13 13 14 14 15 16 16 17 16 16 16 16 16 15 15 15 15 15 15 15 14 14 14 14 13 13 13 13 13 13 12 12 12 12 12 12 12 12 12 12 12 12
13 13 13 13 13 14 15 15 16 16 16 16 16 16 16 15 15 15 15 15 14 14 14 14 14 13 13 13 13 13 12 12 12 12 12 12 12 12 12 12 12 12 12 12
13 13 12 12 13 13 14 15 15 15 15 15 15 15 15 15 15 14 14 14 14 14 14 13 13 13 13 12 12 12 12 12 12 12 12 12 12 12 12 12 12 12 11 11
Wind_Speed
4 3 7 11 11 8 5 4 6 8 6 2 3 4 5 5 6 7 6 6 7 7 5 6 7 7 7 6 6 6 6 5 4 3 3 3 2 2 1 1 3 3 3 3
1 8 14 10 7 6 6 6 7 8 5 2 3 2 2 3 5 7 7 6 7 6 6 5 5 5 6 6 6 5 5 4 4 3 3 2 3 2 1 1 1 2 2 3
10 10 8 7 7 7 8 8 8 6 4 1 3 2 1 0 3 5 5 5 6 9 9 7 5 4 5 5 5 5 4 4 4 4 3 3 3 2 2 1 0 1 2 2
8 10 8 7 9 8 9 9 8 6 2 3 2 2 3 1 2 4 4 5 6 7 7 7 6 5 5 4 4 4 4 4 4 5 5 5 3 2 2 2 1 1 2 2
8 6 8 10 11 9 8 7 5 5 3 1 1 3 3 1 2 4 6 7 6 7 8 7 6 6 5 5 4 4 4 4 4 4 5 5 3 2 1 1 1 1 1 2
10 7 7 9 8 8 5 0 2 3 3 1 4 4 4 4 6 5 5 7 7 8 8 7 6 6 5 5 5 4 4 3 3 4 4 4 4 3 3 2 1 1 1 1
7 8 7 5 3 3 3 4 3 4 3 4 2 3 5 6 6 6 8 8 7 8 8 8 8 7 6 6 5 4 5 3 2 3 3 4 4 4 4 3 2 2 1 1
4 6 4 3 6 6 5 8 7 5 4 3 2 2 3 3 4 4 6 8 8 8 8 8 8 8 7 7 6 5 5 3 2 2 2 3 3 3 2 3 3 2 2 2
5 6 4 3 3 6 4 4 8 6 2 1 2 1 3 0 3 4 6 8 8 8 8 8 8 7 7 6 5 6 5 3 2 2 3 2 2 3 2 2 1 1 2 2
6 4 5 4 0 1 6 6 6 5 4 2 2 4 5 5 5 6 7 9 8 7 8 7 7 7 6 5 4 4 5 3 2 2 2 3 2 2 2 2 1 1 1 0
3 3 5 3 3 5 1 3 5 4 5 5 3 5 6 9 8 8 9 9 10 9 8 8 7 6 6 5 5 4 4 3 2 2 2 2 2 2 2 1 1 1 0 0
3 4 4 7 6 4 5 6 7 5 3 4 4 5 3 7 6 8 9 8 8 9 8 8 8 7 6 5 4 3 3 3 3 2 3 2 2 2 2 1 0 1 1 1
3 4 1 4 5 2 1 2 5 6 5 4 4 4 1 4 5 7 9 10 9 9 9 8 7 6 5 4 4 3 3 3 3 3 3 2 1 1 0 0 0 1 1 1
4 4 5 7 6 3 1 1 3 6 5 5 6 5 2 4 7 7 9 10 10 10 10 8 7 5 5 4 3 3 2 2 2 2 2 1 0 0 0 0 1 1 1 1
4 2 1 4 4 2 1 2 3 4 6 7 8 8 8 9 9 8 9 10 10 10 9 9 7 5 4 3 3 3 2 2 2 3 2 1 1 0 1 1 1 1 1 1
3 2 2 3 1 1 1 2 2 2 3 5 6 4 4 5 7 8 8 10 11 10 10 9 8 7 6 5 3 2 2 2 2 3 2 1 1 1 1 1 1 1 1 1
1 3 1 3 3 3 3 3 3 2 2 5 4 4 4 6 8 9 10 10 10 10 9 9 8 7 6 5 4 3 2 2 2 2 2 1 1 1 1 1 1 1 0 1
4 4 3 1 3 2 5 3 4 5 3 3 4 6 8 8 7 7 7 9 9 9 8 7 7 6 5 4 4 3 3 3 3 2 1 1 1 1 1 1 0 1 0 0
5 5 3 2 2 3 3 2 1 4 1 2 6 6 6 7 7 3 3 6 8 8 8 7 7 6 6 5 5 4 3 3 2 1 1 1 1 1 0 0 1 1 1 1
2 4 4 3 3 4 3 4 1 6 1 1 6 8 8 8 5 3 3 5 5 7 6 6 6 5 6 5 5 5 3 3 2 2 1 1 1 1 1 1 1 1 1 1
2 2 3 3 3 3 4 4 2 4 5 2 5 8 8 5 5 5 6 6 6 7 7 6 7 6 5 5 5 4 4 3 3 3 2 1 1 1 1 1 0 0 0 0
2 2 2 3 3 4 5 2 2 3 2 3 5 6 5 4 5 6 7 8 8 7 6 6 6 5 4 5 5 4 4 4 2 2 2 1 1 1 1 1 0 0 0 0
1 2 3 4 4 3 1 2 2 3 4 3 4 5 7 6 5 6 7 8 7 7 5 4 5 4 3 4 5 5 3 2 2 2 2 1 1 0 0 0 1 0 0 1
4 2 3 2 1 2 3 3 3 4 4 4 5 5 6 6 6 7 7 7 6 5 4 4 4 4 3 3 4 4 3 3 3 2 2 1 1 0 1 1 1 1 1 1
4 2 2 1 1 3 4 3 3 4 6 7 6 5 5 6 6 7 7 7 6 4 3 4 4 3 3 3 3 3 3 3 3 2 2 1 1 1 1 1 1 2 2 3
2 2 3 3 3 2 2 1 3 5 5 5 6 5 4 4 5 6 6 6 6 5 4 4 4 3 2 3 3 3 3 4 3 2 2 1 1 1 1 1 2 3 2 3
Wind_Direction
206 150 218 226 213 209 223 240 263 262 258 209 200 189 183 183 157 153 151 146 144 148 142 129 129 134 134 134 139 143 142 145 138 134 135 136 143 153 145 157 156 155 158 158
323 237 231 231 229 216 232 245 262 278 269 197 183 194 183 170 172 159 152 145 144 130 120 126 130 131 139 144 146 143 146 150 148 149 149 145 141 151 147 136 148 169 167 171
215 239 231 220 228 233 241 224 229 244 298 2 109 1 24 20 105 119 131 140 147 150 148 147 140 143 141 149 153 149 151 153 154 144 125 102 78 59 55 63 69 248 190 183
239 245 233 227 232 218 245 234 216 225 250 265 155 209 278 194 127 152 167 164 159 153 147 150 151 152 159 166 150 139 147 149 152 143 141 145 148 163 196 198 217 245 224 213
241 227 218 231 232 218 227 233 217 207 201 254 326 142 261 172 173 201 189 177 165 159 157 159 160 160 154 142 135 135 133 136 141 144 154 153 152 173 181 164 180 277 270 234
248 251 220 224 234 220 212 225 2 50 84 288 248 161 237 225 198 195 184 173 162 162 163 158 149 136 132 129 123 122 122 129 139 139 155 163 163 164 160 178 201 255 270 268
278 269 246 220 235 262 137 107 33 356 6 245 245 141 225 225 194 183 180 173 167 164 162 155 148 145 141 137 131 126 118 107 119 134 165 175 172 167 176 191 198 204 237 267
230 268 249 221 199 203 192 148 164 193 212 261 334 195 247 225 186 172 168 161 156 155 162 160 157 152 149 146 140 133 126 121 117 124 165 167 158 156 172 187 190 197 217 234
202 246 260 248 212 167 171 175 167 144 152 111 286 279 304 67 123 151 146 143 151 153 155 157 151 146 140 138 139 141 136 128 114 112 104 109 139 146 160 178 187 207 225 220
180 244 277 273 297 269 169 160 101 120 153 196 235 216 210 204 178 158 156 156 158 154 151 147 143 140 140 136 131 128 133 132 125 122 119 110 111 129 149 147 159 211 251 266
159 198 286 333 207 214 160 121 117 128 152 159 209 250 207 191 180 169 168 162 157 152 147 140 133 132 132 129 131 125 127 120 118 121 113 107 102 106 114 125 173 189 208 105
171 149 239 251 252 188 163 172 151 158 206 163 175 253 222 178 173 163 162 155 152 144 138 134 131 126 124 129 137 136 132 129 133 132 115 113 108 105 107 136 174 137 120 150
138 120 148 316 323 359 120 176 163 142 134 158 171 237 235 138 136 151 149 145 142 137 133 130 132 135 139 143 139 134 133 132 132 123 113 100 89 83 87 166 135 105 120 128
114 122 169 203 220 212 209 206 162 139 158 184 200 201 206 159 153 158 150 146 142 142 140 138 140 141 140 141 136 128 117 122 121 109 105 111 142 191 197 152 140 150 147 128
84 109 227 245 238 188 185 209 200 178 179 180 196 189 200 187 170 160 153 147 143 145 146 146 144 140 134 126 126 126 122 120 118 109 112 178 192 133 112 101 101 124 138 138
74 100 2 326 321 25 346 277 209 196 160 161 153 190 207 167 143 135 142 148 151 154 155 152 148 146 145 144 141 136 131 124 123 123 149 154 118 108 96 101 99 100 93 86
149 126 82 280 307 16 321 273 180 155 137 151 173 201 160 146 151 156 156 154 152 156 156 159 160 161 163 160 154 153 153 129 124 135 156 154 130 120 169 140 91 94 120 102
163 138 147 194 39 219 245 261 147 134 108 116 129 144 155 154 153 144 149 154 157 158 159 162 162 162 161 159 155 147 133 127 126 125 135 163 159 166 177 133 151 221 204 197
174 150 141 143 176 241 293 317 89 135 122 148 139 132 124 115 93 83 152 155 162 162 158 160 162 162 160 161 158 141 130 120 113 126 173 182 158 153 170 204 233 234 205 269
113 118 134 142 161 211 249 307 323 110 147 245 136 141 139 120 130 205 187 150 140 143 143 146 148 143 154 163 148 137 147 140 154 185 201 190 166 152 183 223 225 216 200 237
67 78 149 164 191 245 282 303 42 127 216 211 146 143 149 156 179 178 155 139 134 136 142 141 144 150 166 165 148 149 160 183 202 190 162 142 156 176 185 188 198 208 194 28
159 141 170 150 176 244 312 36 111 206 202 150 140 136 125 128 130 139 144 139 131 128 133 141 144 152 160 155 146 155 183 204 187 149 134 141 166 206 108 121 233 222 137 106
81 183 179 175 201 246 324 117 167 143 127 120 125 134 134 130 142 143 142 139 133 130 135 138 144 150 157 158 151 160 193 175 140 130 148 177 187 251 86 187 223 246 197 184
328 8 79 71 12 13 46 73 73 96 107 113 114 118 130 129 138 139 138 136 132 132 137 133 133 147 167 169 162 170 174 150 136 149 181 185 148 356 341 325 228 193 216 227
283 343 50 82 14 38 27 47 74 80 82 84 82 92 114 125 131 142 142 141 139 135 137 131 133 143 169 161 160 167 158 145 146 165 194 200 188 210 309 332 295 231 233 222
270 195 173 210 216 169 237 313 82 88 89 97 95 81 87 117 131 139 143 146 141 140 138 129 127 130 149 162 170 179 166 150 151 172 202 211 214 217 231 303 339 326 286 289
Height
1480 1487 1490 1486 1484 1486 1487 1491 1493 1485 1476 1480 1483 1485 1484 1483 1484 1486 1488 1489 1490 1491 1493 1494 1495 1496 1497 1498 1499 1501 1502 1503 1504 1505 1506 1507 1507 1507 1508 1508 1508 1508 1508 1509
1484 1485 1477 1476 1477 1481 1485 1490 1489 1482 1475 1478 1484 1486 1484 1484 1484 1485 1487 1489 1489 1491 1493 1494 1495 1496 1497 1498 1499 1500 1501 1502 1503 1504 1505 1505 1506 1506 1507 1507 1507 1508 1508 1508
1483 1475 1470 1473 1477 1480 1482 1486 1485 1484 1477 1477 1484 1492 1488 1485 1485 1486 1488 1489 1489 1490 1492 1493 1495 1496 1497 1498 1499 1499 1500 1501 1502 1503 1504 1504 1505 1505 1505 1506 1506 1506 1506 1506
1475 1468 1468 1471 1474 1475 1483 1472 1473 1477 1486 1492 1487 1506 1494 1488 1487 1487 1488 1489 1489 1491 1492 1493 1494 1495 1497 1498 1499 1499 1500 1500 1501 1502 1502 1503 1503 1503 1504 1504 1505 1505 1505 1504
1470 1463 1465 1469 1466 1467 1471 1465 1469 1474 1483 1492 1490 1501 1500 1489 1491 1488 1487 1487 1489 1490 1491 1492 1494 1495 1496 1497 1498 1499 1499 1500 1500 1501 1501 1501 1502 1502 1502 1503 1503 1503 1503 1502
1462 1457 1459 1459 1456 1458 1460 1467 1472 1479 1489 1504 1494 1500 1503 1492 1487 1485 1485 1486 1488 1490 1490 1492 1494 1495 1496 1497 1497 1498 1499 1499 1499 1499 1500 1500 1500 1500 1501 1501 1501 1501 1501 1501
1466 1458 1453 1452 1458 1457 1461 1481 1500 1503 1510 1507 1491 1496 1498 1483 1480 1480 1481 1483 1485 1487 1489 1491 1492 1494 1495 1496 1496 1497 1498 1498 1498 1498 1498 1498 1499 1499 1499 1499 1499 1498 1499 1499
1476 1472 1454 1450 1454 1461 1462 1475 1499 1510 1513 1507 1494 1498 1490 1478 1477 1477 1478 1480 1483 1486 1488 1489 1491 1492 1494 1494 1495 1496 1497 1497 1497 1497 1497 1496 1497 1497 1497 1497 1497 1496 1496 1497
1471 1468 1449 1446 1446 1450 1461 1470 1472 1491 1498 1507 1503 1495 1485 1477 1478 1478 1478 1480 1482 1485 1487 1488 1490 1491 1492 1494 1495 1495 1496 1496 1496 1496 1496 1495 1495 1495 1495 1495 1495 1495 1495 1495
1459 1465 1452 1445 1445 1447 1452 1460 1476 1489 1503 1511 1503 1497 1493 1482 1479 1478 1478 1479 1482 1484 1486 1488 1489 1490 1492 1493 1494 1495 1495 1495 1495 1495 1495 1494 1494 1493 1493 1493 1493 1493 1493 1493
1454 1465 1459 1452 1454 1456 1457 1462 1472 1484 1489 1504 1509 1499 1474 1475 1475 1476 1477 1478 1480 1482 1484 1486 1488 1490 1491 1493 1494 1494 1494 1494 1494 1494 1494 1493 1493 1492 1492 1491 1492 1492 1491 1491
1453 1464 1469 1458 1447 1443 1450 1457 1467 1484 1489 1491 1499 1495 1467 1469 1470 1472 1475 1478 1479 1481 1483 1485 1487 1489 1491 1492 1493 1493 1494 1494 1494 1493 1493 1493 1492 1491 1491 1491 1491 1490 1490 1490
1451 1464 1475 1470 1462 1451 1452 1452 1457 1468 1482 1491 1496 1490 1467 1468 1469 1471 1473 1477 1479 1481 1483 1485 1487 1489 1490 1491 1492 1493 1493 1493 1493 1492 1492 1492 1491 1491 1490 1490 1490 1490 1490 1489
1446 1461 1470 1474 1467 1457 1456 1454 1454 1465 1480 1484 1481 1478 1472 1469 1470 1471 1473 1476 1478 1481 1482 1485 1487 1488 1490 1491 1491 1492 1492 1492 1492 1492 1491 1491 1491 1490 1490 1489 1489 1489 1489 1489
1448 1460 1458 1455 1451 1451 1452 1452 1453 1458 1463 1471 1470 1471 1468 1466 1467 1469 1472 1475 1478 1480 1482 1484 1486 1487 1489 1490 1491 1492 1492 1492 1492 1492 1491 1491 1491 1490 1490 1489 1488 1488 1488 1488
1451 1459 1458 1456 1449 1449 1452 1451 1451 1453 1456 1460 1463 1467 1462 1463 1465 1468 1471 1474 1476 1479 1481 1483 1485 1486 1488 1489 1490 1491 1491 1491 1492 1491 1491 1491 1490 1489 1489 1489 1488 1487 1487 1487
1454 1458 1465 1465 1453 1452 1463 1454 1452 1454 1453 1456 1464 1465 1461 1464 1465 1467 1470 1472 1474 1477 1479 1481 1483 1484 1486 1487 1489 1489 1490 1491 1491 1491 1491 1490 1489 1489 1488 1488 1487 1487 1486 1486
1452 1457 1466 1466 1463 1474 1462 1446 1445 1450 1454 1454 1456 1458 1459 1460 1463 1466 1468 1471 1473 1475 1478 1480 1482 1484 1485 1487 1488 1489 1490 1490 1490 1490 1490 1489 1489 1488 1488 1487 1487 1486 1486 1485
1444 1453 1463 1470 1472 1466 1455 1447 1448 1452 1458 1454 1455 1457 1459 1461 1463 1467 1469 1470 1471 1473 1476 1478 1481 1482 1484 1486 1487 1488 1489 1489 1489 1488 1488 1488 1488 1488 1487 1487 1486 1486 1485 1484
1444 1448 1460 1466 1470 1472 1460 1447 1444 1449 1462 1456 1454 1457 1459 1461 1468 1470 1468 1470 1471 1473 1476 1478 1480 1482 1483 1485 1486 1486 1487 1487 1487 1487 1487 1488 1488 1487 1487 1486 1486 1485 1484 1483
1455 1457 1461 1466 1469 1464 1453 1446 1445 1460 1463 1455 1454 1455 1456 1458 1461 1465 1467 1469 1470 1473 1475 1477 1479 1481 1482 1483 1485 1485 1486 1486 1487 1487 1487 1486 1486 1486 1486 1485 1485 1484 1483 1482
1458 1461 1463 1465 1470 1468 1450 1448 1453 1456 1452 1453 1453 1454 1456 1458 1459 1462 1465 1468 1469 1471 1474 1476 1478 1480 1481 1482 1483 1484 1484 1485 1485 1485 1485 1485 1485 1485 1485 1484 1483 1482 1482 1481
1456 1457 1458 1460 1462 1454 1450 1450 1451 1450 1452 1453 1454 1455 1456 1458 1460 1461 1464 1466 1468 1470 1473 1475 1477 1479 1480 1481 1482 1482 1483 1484 1484 1484 1484 1484 1484 1484 1483 1483 1482 1481 1481 1480
1455 1452 1454 1457 1455 1453 1452 1451 1450 1450 1451 1453 1454 1455 1457 1458 1459 1461 1463 1465 1467 1470 1472 1474 1476 1477 1479 1480 1480 1481 1482 1482 1482 1482 1482 1482 1482 1482 1482 1481 1481 1480 1479 1479
1457 1455 1456 1457 1456 1453 1453 1453 1453 1453 1453 1453 1455 1455 1457 1458 1460 1461 1463 1465 1467 1469 1472 1473 1474 1475 1477 1478 1479 1480 1480 1481 1481 1481 1481 1481 1481 1481 1480 1480 1479 1479 1478 1478
1455 1456 1457 1458 1455 1455 1455 1454 1453 1453 1453 1454 1455 1456 1458 1459 1460 1461 1463 1465 1467 1469 1471 1472 1473 1474 1475 1476 1477 1478 1479 1479 1479 1480 1480 1480 1480 1479 1479 1478 1478 1478 1477 1476